Weather History for Midland Airpark, TX

Change the Weather History Date:

Monday, November 26, 2012

  Actual Average (KMAF) Record (KMAF)
Temperature  
Mean Temperature 58 °F 49 °F  
Max Temperature 71 °F 63 °F 83 °F (1995)
Min Temperature 43 °F 35 °F 13 °F (1993)
Degree Days  
Heating Degree Days 8 16  
Month to date heating degree days 301  
Since 1 July heating degree days 410  
Growing Degree Days 8 (Base 50)    
Moisture  
Dew Point 30 °F    
Average Humidity 36    
Maximum Humidity 54    
Minimum Humidity 16    
Precipitation  
Precipitation 0.00 in 0.02 in 1.17 in (1968)
Month to date precipitation 0.60  
Year to date precipitation 13.91  
Snow  
Snow 0.00 in - - ()
Month to date snowfall  
Since 1 July snowfall  
Since 1 September snowfall  
Snow Depth -    
Sea Level Pressure  
Sea Level Pressure 30.08 in    
Wind  
Wind Speed 9 mph (North)    
Max Wind Speed 17 mph    
Max Gust Speed 24 mph    
Visibility 10 miles    
Events      
T = Trace of Precipitation, MM = Missing Value Source: NWS Daily Summary

Daily Weather History Graph

Daily Weather History Graph

Search for Another Location

Airport:

Trip Planner

Search our weather history database for the weather conditions in past years. The results will help you decide how hot, cold, wet, or windy it might be!

Date:

Astronomy

Nov. 26, 2012 Rise Set
Actual Time 7:27 AM CST 5:44 PM CST
Civil Twilight 7:00 AM CST 6:10 PM CST
Nautical Twilight 6:30 AM CST 6:40 PM CST
Astronomical Twilight 6:01 AM CST 7:10 PM CST
Moon 4:35 PM CST (11/26) 5:43 AM CST (11/26)
Length of Visible Light 11h 09m
Length of Day
10h 16m
Waxing Gibbous, 97% of the Moon is Illuminated
Nov 26
Waxing Gibbous
Nov 28
Full
Dec 6
Last Quarter
Dec 13
New
Dec 19
First Quarter

Hourly Weather History & Observations

Time (CST) Temp. Windchill Dew Point Humidity Pressure Visibility Wind Dir Wind Speed Gust Speed Precip Events Conditions
12:15 AM 57.7 °F - 32.0 °F 38% 29.91 in 10.0 mi SW 4.6 mph - N/A   Clear
12:35 AM 57.9 °F - 32.0 °F 37% 29.92 in 10.0 mi SSW 5.8 mph - N/A   Clear
12:55 AM 56.8 °F - 32.0 °F 39% 29.92 in 10.0 mi SSW 6.9 mph - N/A   Clear
1:15 AM 57.0 °F - 32.0 °F 39% 29.91 in 10.0 mi SW 6.9 mph - N/A   Clear
1:35 AM 57.4 °F - 31.8 °F 38% 29.92 in 10.0 mi SW 8.1 mph - N/A   Clear
1:55 AM 57.7 °F - 31.6 °F 37% 29.92 in 10.0 mi SW 9.2 mph - N/A   Clear
2:15 AM 57.9 °F - 32.2 °F 38% 29.92 in 10.0 mi SW 9.2 mph - N/A   Clear
2:35 AM 58.3 °F - 33.3 °F 39% 29.92 in 10.0 mi SW 10.4 mph - N/A   Clear
2:55 AM 58.5 °F - 32.5 °F 38% 29.92 in 10.0 mi WSW 11.5 mph - N/A   Clear
3:15 AM 58.5 °F - 32.4 °F 37% 29.93 in 10.0 mi SW 9.2 mph - N/A   Clear
3:35 AM 57.4 °F - 32.4 °F 39% 29.93 in 10.0 mi SW 9.2 mph - N/A   Clear
3:55 AM 57.2 °F - 32.0 °F 38% 29.93 in 10.0 mi SW 9.2 mph - N/A   Clear
4:15 AM 57.0 °F - 32.9 °F 40% 29.94 in 10.0 mi SW 10.4 mph - N/A   Clear
4:35 AM 56.8 °F - 34.7 °F 43% 29.94 in 10.0 mi SW 6.9 mph - N/A   Clear
4:55 AM 56.1 °F - 35.6 °F 46% 29.94 in 10.0 mi WSW 5.8 mph - N/A   Clear
5:15 AM 54.3 °F - 35.4 °F 49% 29.94 in 10.0 mi West 5.8 mph - N/A   Clear
5:35 AM 52.9 °F - 35.6 °F 52% 29.94 in 10.0 mi West 4.6 mph - N/A   Clear
5:55 AM 51.6 °F - 35.4 °F 54% 29.95 in 10.0 mi West 5.8 mph - N/A   Clear
6:15 AM 50.7 °F - 33.1 °F 51% 29.96 in 10.0 mi West 9.2 mph - N/A   Clear
6:35 AM 50.7 °F - 32.0 °F 49% 29.96 in 10.0 mi West 6.9 mph - N/A   Clear
6:55 AM 51.1 °F - 31.8 °F 48% 29.97 in 10.0 mi West 8.1 mph - N/A   Clear
7:15 AM 51.6 °F - 31.3 °F 46% 29.97 in 10.0 mi WNW 6.9 mph - N/A   Clear
7:35 AM 51.1 °F - 31.3 °F 47% 29.98 in 10.0 mi West 8.1 mph - N/A   Clear
7:55 AM 52.0 °F - 31.5 °F 46% 29.99 in 10.0 mi West 9.2 mph - N/A   Clear
8:15 AM 53.4 °F - 31.6 °F 44% 30.01 in 10.0 mi West 6.9 mph - N/A   Clear
8:35 AM 54.9 °F - 31.8 °F 42% 30.02 in 10.0 mi West 8.1 mph - N/A   Clear
8:55 AM 56.7 °F - 32.0 °F 39% 30.03 in 10.0 mi West 6.9 mph - N/A   Clear
9:15 AM 59.2 °F - 32.0 °F 36% 30.03 in 10.0 mi WNW 5.8 mph - N/A   Clear
9:35 AM 61.9 °F - 32.0 °F 33% 30.04 in 10.0 mi WNW 9.2 mph - N/A   Clear
9:55 AM 63.9 °F - 32.0 °F 30% 30.04 in 10.0 mi NNW 4.6 mph - N/A   Clear
10:15 AM 67.8 °F - 30.9 °F 25% 30.05 in 10.0 mi NW 9.2 mph - N/A   Clear
10:35 AM 70.5 °F - 27.9 °F 20% 30.04 in 10.0 mi NNW 12.7 mph 17.3 mph N/A   Clear
10:55 AM 71.2 °F - 27.5 °F 20% 30.05 in 10.0 mi North 13.8 mph - N/A   Clear
11:15 AM 71.1 °F - 27.0 °F 19% 30.07 in 10.0 mi North 10.4 mph 17.3 mph N/A   Clear
11:35 AM 69.4 °F - 26.8 °F 20% 30.07 in 10.0 mi North 11.5 mph 17.3 mph N/A   Clear
11:55 AM 69.1 °F - 25.9 °F 20% 30.07 in 10.0 mi North 12.7 mph - N/A   Clear
12:15 PM 70.0 °F - 25.5 °F 19% 30.07 in 10.0 mi NNE 11.5 mph - N/A   Clear
12:35 PM 69.4 °F - 25.9 °F 20% 30.07 in 10.0 mi NNE 11.5 mph 17.3 mph N/A   Clear
12:55 PM 69.8 °F - 23.5 °F 18% 30.06 in 10.0 mi North 15.0 mph 19.6 mph N/A   Clear
1:15 PM 69.8 °F - 21.2 °F 16% 30.06 in 10.0 mi NNE 15.0 mph - N/A   Clear
1:35 PM 69.6 °F - 21.7 °F 16% 30.05 in 10.0 mi NNE 12.7 mph - N/A   Clear
1:55 PM 69.6 °F - 21.9 °F 16% 30.06 in 10.0 mi NNE 12.7 mph 18.4 mph N/A   Clear
2:15 PM 69.1 °F - 23.9 °F 18% 30.06 in 10.0 mi NNE 13.8 mph 18.4 mph N/A   Clear
2:35 PM 68.2 °F - 26.2 °F 21% 30.07 in 10.0 mi NNE 11.5 mph 19.6 mph N/A   Clear
2:55 PM 67.8 °F - 27.7 °F 22% 30.07 in 10.0 mi NNE 13.8 mph 20.7 mph N/A   Clear
3:15 PM 67.5 °F - 28.0 °F 23% 30.08 in 10.0 mi ENE 12.7 mph - N/A   Clear
3:35 PM 66.2 °F - 27.7 °F 24% 30.08 in 10.0 mi ENE 15.0 mph 19.6 mph N/A   Clear
3:55 PM 66.2 °F - 29.1 °F 25% 30.10 in 7.0 mi ENE 15.0 mph - N/A   Clear
4:15 PM 66.4 °F - 30.6 °F 26% 30.11 in 10.0 mi ENE 15.0 mph 19.6 mph N/A   Clear
4:35 PM 65.7 °F - 30.7 °F 27% 30.12 in 10.0 mi NE 13.8 mph 19.6 mph N/A   Clear
4:55 PM 64.9 °F - 31.5 °F 29% 30.14 in 10.0 mi NE 17.3 mph 20.7 mph N/A   Clear
5:15 PM 63.0 °F - 31.6 °F 31% 30.15 in 10.0 mi NE 16.1 mph - N/A   Clear
5:35 PM 61.5 °F - 31.5 °F 32% 30.16 in 10.0 mi NE 12.7 mph 18.4 mph N/A   Clear
5:55 PM 60.3 °F - 31.5 °F 34% 30.17 in 10.0 mi ENE 12.7 mph - N/A   Clear
6:15 PM 59.2 °F - 31.3 °F 35% 30.18 in 10.0 mi NE 13.8 mph - N/A   Clear
6:35 PM 57.7 °F - 31.8 °F 37% 30.19 in 10.0 mi NE 11.5 mph - N/A   Clear
6:55 PM 56.7 °F - 32.0 °F 39% 30.21 in 10.0 mi NE 13.8 mph 18.4 mph N/A   Clear
7:15 PM 55.8 °F - 32.0 °F 41% 30.22 in 10.0 mi NE 12.7 mph 23.0 mph N/A   Clear
7:35 PM 54.7 °F - 32.0 °F 42% 30.24 in 10.0 mi NE 15.0 mph - N/A   Clear
7:55 PM 53.8 °F - 31.1 °F 42% 30.25 in 10.0 mi NE 15.0 mph 24.2 mph N/A   Clear
8:15 PM 52.7 °F - 30.6 °F 43% 30.26 in 10.0 mi NE 17.3 mph 23.0 mph N/A   Clear
8:35 PM 51.6 °F - 30.2 °F 44% 30.27 in 10.0 mi NE 13.8 mph 19.6 mph N/A   Clear
8:55 PM 50.5 °F - 29.3 °F 44% 30.29 in 10.0 mi NE 12.7 mph - N/A   Clear
9:15 PM 49.5 °F - 28.8 °F 45% 30.30 in 10.0 mi NE 17.3 mph 21.9 mph N/A   Clear
9:35 PM 48.7 °F - 28.2 °F 45% 30.32 in 10.0 mi NE 16.1 mph 20.7 mph N/A   Clear
9:55 PM 48.0 °F - 28.4 °F 47% 30.33 in 10.0 mi ENE 9.2 mph - N/A   Clear
10:15 PM 47.1 °F - 28.4 °F 48% 30.34 in 10.0 mi NE 13.8 mph 18.4 mph N/A   Clear
10:35 PM 46.4 °F 41.1 °F 28.2 °F 49% 30.34 in 10.0 mi NE 11.5 mph - N/A   Clear
10:55 PM 45.7 °F 39.8 °F 28.2 °F 51% 30.35 in 10.0 mi NE 12.7 mph 18.4 mph N/A   Clear
11:15 PM 45.3 °F 39.0 °F 28.0 °F 51% 30.35 in 10.0 mi NE 13.8 mph - N/A   Clear
11:35 PM 44.6 °F 37.8 °F 28.0 °F 52% 30.35 in 10.0 mi NE 15.0 mph - N/A   Clear
11:55 PM 43.9 °F 36.8 °F 28.0 °F 54% 30.37 in 10.0 mi NE 15.0 mph 18.4 mph N/A   Clear